This demonstration page uses our WeatherBlox Daily Observations layout. Learn more.

Left ArrowRight Arrow

34.02893, -84.19858

Hourly Observations for May 25, 2015

Temp ( °F °C ) Dew Point ( °F °C ) Humidity (%) Winds ( mph kmh ) Pressure ( in mb ) Visibility ( mi km ) Precip ( " mm )
12:53 am 00:53 Clear 70 21.1 57 13.9 64 64 SE 6 9 30.22 1023 10 16 0.00 0.00
1:53 am 01:53 Clear 69 20.6 58 14.4 68 68 SE 8 13 30.22 1023 9 14 0.00 0.00
2:53 am 02:53 Clear 67 19.4 60 15.6 79 79 SSE 6 9 30.22 1023 9 14 0.00 0.00
3:53 am 03:53 Clear 67 19.4 60 15.6 79 79 SE 9 15 30.22 1023 8 13 0.00 0.00
4:20 am 04:20 Mostly Cloudy 66 19 61 16 83 83 SSE 7 11 30.24 1024 8 13 0.00 0.00
4:53 am 04:53 Cloudy 67 19.4 61 16.1 81 81 SSE 9 15 30.23 1024 8 13 0.00 0.00
5:30 am 05:30 Partly Cloudy 66 19 61 16 83 83 ESE 3 6 30.24 1024 8 13 0.00 0.00
5:53 am 05:53 Mostly Cloudy 66 18.9 62 16.7 87 87 VRB 3 6 30.22 1024 8 13 0.00 0.00
6:23 am 06:23 Cloudy 66 18.9 62 16.7 87 87 ESE 6 9 30.24 1024 8 13 0.00 0.00
6:42 am 06:42 Cloudy 66 19 61 16 83 83 VRB 5 7 30.24 1024 7 11 0.00 0.00
6:53 am 06:53 Cloudy with Haze 66 18.9 61 16.1 84 84 SE 5 7 30.23 1024 6 10 0.00 0.00
7:28 am 07:28 Cloudy with Mist and Fog 66 19 63 17 88 88 VRB 3 6 30.24 1024 6 10 0.00 0.00
7:53 am 07:53 Cloudy with Mist and Fog 66 18.9 62 16.7 87 87 Calm 30.24 1024 6 10 0.00 0.00
8:53 am 08:53 Cloudy with Haze 68 20 63 17.2 84 84 SE 6 9 30.27 1025 6 10 0.00 0.00
9:53 am 09:53 Cloudy with Haze 72 22.2 64 17.8 76 76 ESE 6 9 30.26 1025 6 10 0.00 0.00
10:53 am 10:53 Cloudy 73 22.8 64 17.8 74 74 VRB 7 11 30.25 1024 7 11 0.00 0.00
11:00 am 11:00 Cloudy 73 23 64 18 74 74 SSE 7 11 30.27 1025 7 11 0.00 0.00
11:33 am 11:33 Mostly Cloudy 75 23.9 65 18.3 71 71 VRB 6 9 30.24 1024 7 11 0.00 0.00
11:53 am 11:53 Mostly Cloudy 77 25 65 18.3 66 66 E 6 9 30.24 1024 8 13 0.00 0.00
12:28 pm 12:28 Mostly Cloudy 77 25 64 18 65 65 ESE 9 15 30.24 1024 8 13 0.00 0.00
12:53 pm 12:53 Cloudy 77 25 65 18.3 66 66 SE 8 13 30.23 1024 8 13 0.00 0.00
1:53 pm 13:53 Mostly Cloudy 80 26.7 66 18.9 62 62 VRB 5 7 30.20 1023 8 13 0.00 0.00
2:53 pm 14:53 Cloudy 80 26.7 65 18.3 60 60 SE 7 11 30.19 1022 7 11 0.00 0.00
3:53 pm 15:53 Cloudy 78 25.6 66 18.9 67 67 VRB 3 6 30.17 1022 7 11 0.00 0.00
4:53 pm 16:53 Cloudy 79 26.1 67 19.4 67 67 VRB 5 7 30.17 1022 7 11 0.00 0.00
5:53 pm 17:53 Cloudy with Light Rain 77 25 67 19.4 71 71 SE 5 7 30.17 1022 6 10 0.00 0.03
6:53 pm 18:53 Cloudy with Mist and Fog 72 22.2 70 21.1 94 94 Calm 30.17 1022 5 8 0.04 1.02
7:14 pm 19:14 Cloudy with Nearby Thunderstorms 72 22 70 21 94 94 E 5 7 30.15 1021 5 8 0.00 0.00
7:36 pm 19:36 Cloudy with Thunderstorms 73 22.8 70 21.1 90 90 SW 7 11 30.18 1022 4 6 0.01 0.25
7:51 pm 19:51 Cloudy with Light Rain 72 22 70 21 94 94 W 8 13 30.18 1022 4 6 0.03 0.76
7:53 pm 19:53 Cloudy with Light Rain 72 22.2 70 21.1 94 94 W 7 11 30.18 1022 4 6 0.03 0.76
7:56 pm 19:56 Cloudy with Light Rain 72 22.2 70 21.1 94 94 W 6 9 30.18 1022 2 3 0.01 0.25
8:03 pm 20:03 Cloudy with Rain 72 22 72 22 100 100 WNW 3 6 30.18 1022 2 3 0.00 0.00
8:37 pm 20:37 Cloudy with Nearby Thunderstorms 71 21.7 71 21.7 100 100 Calm 30.18 1022 2 3 0.18 4.57
8:53 pm 20:53 Cloudy with Strong Thunderstorms 69 20.6 68 20 96 96 SSW 13 20 30.20 1023 2 3 0.53 13.46
9:00 pm 21:00 Cloudy with Strong Thunderstorms 70 21 66 19 88 88 SSW 12 19 30.21 1023 1 1 0.00 0.00
9:18 pm 21:18 Cloudy with Thunderstorms 68 20 66 19 94 94 Calm 30.18 1022 2 2 0.00 0.00
9:26 pm 21:26 Cloudy with Nearby Thunderstorms 68 20 66 19 94 94 SE 7 11 30.21 1023 2 3 0.00 0.00
9:36 pm 21:36 Cloudy with Light Rain 68 20 66 19 94 94 SE 5 7 30.18 1022 3 5 0.00 0.00
9:53 pm 21:53 Mostly Cloudy with Thunderstorms 67 19.4 66 18.9 97 97 ESE 6 9 30.17 1022 7 11 0.53 13.46
10:09 pm 22:09 Partly Cloudy 67 19.4 66 18.9 97 97 VRB 3 6 30.18 1022 9 14 0.00 0.03
10:53 pm 22:53 Mostly Clear 67 19.4 66 18.9 97 97 Calm 30.17 1022 8 13 0.00 0.03
11:53 pm 23:53 Partly Cloudy 68 20 67 19.4 96 96 Calm 30.17 1022 9 14 0.00 0.00

Powered by AerisWeather